Meteo pe oră la Bolshie Kibyachi

Astăzi, 12 Mai, Miercuri

Timp Temperatura Precipitaţii Vânt Presiune Umiditate
00:00 +18°C° 0 mm 1 m/s 759 mmHg 56%
01:00 +17°C° 0 mm 2 m/s 759 mmHg 56%
02:00 +16°C° 0 mm 2 m/s 759 mmHg 55%
03:00 +16°C° 0 mm 2 m/s 759 mmHg 54%
04:00 +16°C° 0 mm 2 m/s 759 mmHg 56%
05:00 +17°C° 0 mm 2 m/s 760 mmHg 58%
06:00 +18°C° 0 mm 2 m/s 760 mmHg 59%
07:00 +19°C° 0 mm 3 m/s 760 mmHg 55%
08:00 +21°C° 0 mm 3 m/s 760 mmHg 50%
09:00 +23°C° 0 mm 4 m/s 760 mmHg 45%
10:00 +25°C° 0 mm 4 m/s 760 mmHg 43%
11:00 +26°C° 0 mm 4 m/s 760 mmHg 41%
12:00 +27°C° 0 mm 4 m/s 759 mmHg 39%
13:00 +27°C° 0 mm 4 m/s 759 mmHg 37%
14:00 +27°C° 0 mm 4 m/s 759 mmHg 35%
15:00 +27°C° 0 mm 4 m/s 759 mmHg 33%
16:00 +26°C° 0 mm 3 m/s 759 mmHg 39%
17:00 +25°C° 0 mm 3 m/s 759 mmHg 45%
18:00 +24°C° 0 mm 2 m/s 759 mmHg 50%
19:00 +21°C° 0 mm 2 m/s 759 mmHg 52%
20:00 +20°C° 0 mm 2 m/s 759 mmHg 54%
21:00 +18°C° 0 mm 2 m/s 759 mmHg 56%
22:00 +18°C° 0 mm 2 m/s 759 mmHg 59%
23:00 +18°C° 0 mm 1 m/s 759 mmHg 62%

Mâine, 13 Mai, Joi

Timp Temperatura Precipitaţii Vânt Presiune Umiditate
00:00 +18°C° 0 mm 1 m/s 759 mmHg 65%
01:00 +16°C° 0 mm 1 m/s 759 mmHg 64%
02:00 +16°C° 0 mm 1 m/s 759 mmHg 63%
03:00 +16°C° 0 mm 1 m/s 759 mmHg 62%
04:00 +18°C° 0 mm 1 m/s 759 mmHg 62%
05:00 +18°C° 0 mm 1 m/s 759 mmHg 62%
06:00 +18°C° 0 mm 2 m/s 759 mmHg 62%
07:00 +20°C° 0 mm 2 m/s 759 mmHg 55%
08:00 +21°C° 0 mm 3 m/s 759 mmHg 49%
09:00 +23°C° 0 mm 4 m/s 759 mmHg 42%
10:00 +25°C° 0 mm 4 m/s 759 mmHg 40%
11:00 +25°C° 0 mm 4 m/s 759 mmHg 38%
12:00 +26°C° 0 mm 4 m/s 759 mmHg 36%
13:00 +26°C° 0 mm 5 m/s 758 mmHg 37%
14:00 +26°C° 0 mm 5 m/s 758 mmHg 38%
15:00 +27°C° 0 mm 5 m/s 758 mmHg 38%
16:00 +26°C° 0 mm 4 m/s 758 mmHg 45%
17:00 +24°C° 0 mm 3 m/s 757 mmHg 51%
18:00 +23°C° 0 mm 2 m/s 757 mmHg 57%
19:00 +21°C° 0 mm 3 m/s 757 mmHg 58%
20:00 +20°C° 0 mm 3 m/s 757 mmHg 60%
21:00 +18°C° 0 mm 3 m/s 757 mmHg 61%
22:00 +18°C° 0 mm 3 m/s 757 mmHg 62%
23:00 +18°C° 0 mm 3 m/s 757 mmHg 63%

Poimâine, 14 Mai, Vineri

Timp Temperatura Precipitaţii Vânt Presiune Umiditate
00:00 +17°C° 0 mm 3 m/s 757 mmHg 64%
01:00 +17°C° 0 mm 3 m/s 757 mmHg 65%
02:00 +16°C° 0 mm 3 m/s 757 mmHg 66%
03:00 +16°C° 0 mm 3 m/s 757 mmHg 68%
04:00 +17°C° 0 mm 4 m/s 757 mmHg 67%
05:00 +17°C° 0 mm 4 m/s 757 mmHg 66%
06:00 +18°C° 0 mm 4 m/s 757 mmHg 66%
07:00 +20°C° 0 mm 5 m/s 757 mmHg 59%
08:00 +21°C° 0 mm 5 m/s 757 mmHg 53%
09:00 +23°C° 0 mm 6 m/s 757 mmHg 47%
10:00 +24°C° 0 mm 6 m/s 757 mmHg 44%
11:00 +26°C° 0 mm 6 m/s 756 mmHg 42%
12:00 +27°C° 0 mm 6 m/s 756 mmHg 40%
13:00 +27°C° 0 mm 6 m/s 756 mmHg 40%
14:00 +28°C° 0 mm 5 m/s 756 mmHg 40%
15:00 +28°C° 0 mm 5 m/s 756 mmHg 40%
16:00 +27°C° 0 mm 4 m/s 756 mmHg 45%
17:00 +26°C° 0 mm 4 m/s 755 mmHg 50%
18:00 +25°C° 0 mm 3 m/s 755 mmHg 56%
19:00 +22°C° 0 mm 3 m/s 755 mmHg 58%
20:00 +21°C° 0 mm 3 m/s 755 mmHg 61%
21:00 +19°C° 0 mm 3 m/s 755 mmHg 64%
22:00 +18°C° 0 mm 3 m/s 755 mmHg 64%
23:00 +18°C° 0 mm 3 m/s 755 mmHg 64%

15 Mai, Sâmbătă

Timp Temperatura Precipitaţii Vânt Presiune Umiditate
00:00 +17°C° 0 mm 3 m/s 755 mmHg 64%
01:00 +17°C° 0 mm 3 m/s 755 mmHg 62%
02:00 +16°C° 0 mm 3 m/s 755 mmHg 61%
03:00 +16°C° 0 mm 3 m/s 755 mmHg 60%
04:00 +17°C° 0 mm 3 m/s 755 mmHg 60%
05:00 +17°C° 0 mm 3 m/s 755 mmHg 61%
06:00 +18°C° 0 mm 3 m/s 755 mmHg 61%
07:00 +20°C° 0 mm 4 m/s 755 mmHg 56%
08:00 +21°C° 0 mm 5 m/s 755 mmHg 50%
09:00 +23°C° 0 mm 5 m/s 755 mmHg 45%
10:00 +25°C° 0 mm 5 m/s 755 mmHg 43%
11:00 +27°C° 0 mm 6 m/s 755 mmHg 41%
12:00 +28°C° 0 mm 6 m/s 755 mmHg 39%
13:00 +28°C° 0 mm 6 m/s 755 mmHg 39%
14:00 +28°C° 0 mm 5 m/s 754 mmHg 39%
15:00 +28°C° 0 mm 5 m/s 754 mmHg 39%
16:00 +27°C° 0 mm 4 m/s 754 mmHg 44%
17:00 +26°C° 0 mm 4 m/s 754 mmHg 48%
18:00 +24°C° 0 mm 3 m/s 754 mmHg 52%
19:00 +22°C° 0 mm 3 m/s 754 mmHg 53%
20:00 +20°C° 0 mm 3 m/s 754 mmHg 54%
21:00 +19°C° 0 mm 3 m/s 754 mmHg 55%
22:00 +18°C° 0 mm 3 m/s 754 mmHg 56%
23:00 +18°C° 0 mm 3 m/s 753 mmHg 56%

16 Mai, Duminică

Timp Temperatura Precipitaţii Vânt Presiune Umiditate
00:00 +17°C° 0 mm 3 m/s 753 mmHg 57%
01:00 +17°C° 0 mm 3 m/s 753 mmHg 57%
02:00 +17°C° 0 mm 3 m/s 754 mmHg 57%
03:00 +16°C° 0 mm 3 m/s 754 mmHg 58%
04:00 +17°C° 0 mm 3 m/s 754 mmHg 60%
05:00 +18°C° 0 mm 3 m/s 754 mmHg 61%
06:00 +19°C° 0 mm 3 m/s 754 mmHg 63%
07:00 +21°C° 0 mm 4 m/s 754 mmHg 58%
08:00 +23°C° 0 mm 4 m/s 754 mmHg 52%
09:00 +26°C° 0 mm 5 m/s 754 mmHg 47%
10:00 +27°C° 0 mm 5 m/s 754 mmHg 43%
11:00 +28°C° 0 mm 6 m/s 753 mmHg 40%
12:00 +29°C° 0 mm 6 m/s 753 mmHg 37%
13:00 +29°C° 0 mm 6 m/s 753 mmHg 39%
14:00 +29°C° 0 mm 5 m/s 753 mmHg 40%
15:00 +29°C° 0 mm 5 m/s 753 mmHg 42%
16:00 +28°C° 0 mm 4 m/s 752 mmHg 47%
17:00 +27°C° 0 mm 4 m/s 752 mmHg 52%
18:00 +26°C° 0 mm 3 m/s 752 mmHg 58%
19:00 +24°C° 0 mm 3 m/s 752 mmHg 59%
20:00 +21°C° 0 mm 3 m/s 752 mmHg 61%
21:00 +20°C° 0 mm 3 m/s 752 mmHg 62%
22:00 +19°C° 0 mm 3 m/s 752 mmHg 62%
23:00 +19°C° 0 mm 3 m/s 752 mmHg 62%

17 Mai, Luni

Timp Temperatura Precipitaţii Vânt Presiune Umiditate
00:00 +18°C° 0 mm 3 m/s 752 mmHg 62%
01:00 +18°C° 0 mm 3 m/s 752 mmHg 64%
02:00 +17°C° 0 mm 2 m/s 753 mmHg 66%
03:00 +17°C° 0 mm 2 m/s 753 mmHg 68%
04:00 +18°C° 0 mm 2 m/s 753 mmHg 68%
05:00 +20°C° 0 mm 1 m/s 753 mmHg 68%
06:00 +21°C° 0 mm 1 m/s 753 mmHg 67%
07:00 +23°C° 0 mm 2 m/s 753 mmHg 63%
08:00 +24°C° 0 mm 2 m/s 754 mmHg 59%
09:00 +26°C° 0 mm 2 m/s 754 mmHg 55%
10:00 +27°C° 0 mm 3 m/s 754 mmHg 52%
11:00 +28°C° 0 mm 3 m/s 753 mmHg 49%
12:00 +29°C° 0 mm 3 m/s 753 mmHg 46%
13:00 +29°C° 0 mm 3 m/s 753 mmHg 46%
14:00 +29°C° 0 mm 3 m/s 753 mmHg 45%
15:00 +29°C° 0 mm 3 m/s 753 mmHg 44%
16:00 +28°C° 0 mm 3 m/s 753 mmHg 50%
17:00 +27°C° 0 mm 2 m/s 753 mmHg 55%
18:00 +26°C° 0 mm 2 m/s 752 mmHg 61%
19:00 +24°C° 0.1 mm 2 m/s 753 mmHg 65%
20:00 +23°C° 0.1 mm 2 m/s 753 mmHg 70%
21:00 +20°C° 0.1 mm 2 m/s 753 mmHg 74%
22:00 +19°C° 0.2 mm 2 m/s 753 mmHg 74%
23:00 +18°C° 0.2 mm 2 m/s 753 mmHg 74%
Arată mai mult

Formular de consimțământ

Meteoprog și furnizorii noștri de servicii pot stoca și accesa date personale, precum cookies, identificatori de dispozitiv sau alte tehnologii similare pe dispozitivul dumneavoastră și procesa astfel de date pentru a personaliza conținutul și reclamele, dar și pentru a oferi caracteristici de social media și pentru a analiza traficul.

  • Stocarea și/sau accesarea informațiilor pe dispozitivul dumneavoastră

    Cookies, identificatori de dispozitiv sau alte informații pot fi stocate sau accesate pe dispozitiv în scopurile indicate mai sus.

  • Reclame și conținut personalizat, evaluarea reclamelor și a conținutului, informații despre audiențe și dezvoltarea produselor

    Reclamele și conținutul pot fi personalizate pe baza unui profil. Pot fi adăugate date suplimentare pentru a personaliza mai bine reclamele și conținutul. Performanța reclamelor și conținutului poate fi măsurată. Pot fi obținute informații despre utilizatorii care au văzut reclamele și conținutul. Aceste date pot fi utilizate pentru a dezvolta sau îmbunătăți experiența utilizatorilor, sistemele și software-ul.

Dând clic pe ‘Sunt de acord’, permiteți utilizarea cookie-urilor menționate, a identificatorilor de dispozitiv, balizelor web sau altor tehnologii similare. Setările pot fi modificate din browser-ul dispozitivului dumneavoastră.

În anumite scopuri, interesele legitime pot prima asupra consimțământului. Puteți citi mai multe informații în acest sens în Politica privind Confidențialitatea Datelor și Cookie.